Theta_e
353 352 353 351 349 349 349 346 346 346 350 346 342 340 337 330 330 329 327 327 332 339 345 342 344 352 355 356 358 356 355 358 357 356 357 354 353 352 349 351 351 352 351 352 354 354 355 355 354 353 352 349 343 341 339 339 339 337 336 336 336 336 335 334 334 335 337 337 337 337 338 339 340 342
351 355 353 352 351 351 346 345 347 348 347 346 346 345 341 338 334 331 329 328 332 337 342 346 346 348 349 352 354 356 356 359 359 354 354 355 355 349 348 349 349 350 350 350 350 353 354 353 352 349 346 342 340 338 339 337 338 335 334 335 335 334 333 333 334 334 335 336 336 336 337 338 338 339
354 351 352 350 351 351 348 350 351 350 351 348 347 349 345 344 338 336 330 329 332 342 340 342 347 348 347 351 352 353 354 359 359 354 352 355 355 352 353 349 348 348 347 346 346 346 347 347 345 344 342 339 339 340 339 335 336 334 332 332 332 333 331 330 332 333 334 335 335 335 336 337 337 337
356 353 351 351 351 351 350 348 349 348 349 352 348 346 344 344 342 340 332 333 335 340 343 344 346 349 349 351 350 349 354 357 358 353 353 356 359 358 356 353 348 346 345 344 343 341 340 340 341 342 341 340 342 341 339 338 334 332 330 329 328 330 330 329 330 331 332 332 333 334 335 335 335 335
356 354 352 352 353 351 350 348 348 349 348 348 348 347 343 343 343 341 338 334 336 337 340 344 346 350 352 350 349 351 352 354 355 357 355 356 356 358 357 355 350 346 343 341 340 339 338 337 338 339 339 339 341 343 340 338 334 331 328 326 325 326 327 328 329 330 330 331 332 332 333 333 333 333
356 353 351 352 353 352 351 350 348 348 349 348 346 346 347 344 344 345 340 336 335 336 337 340 343 346 351 347 348 350 351 352 356 355 354 357 357 359 358 355 354 349 344 340 338 337 336 336 336 337 338 339 340 340 339 337 331 330 326 324 324 324 324 326 328 329 328 330 331 331 331 332 331 331
353 351 351 352 352 354 351 351 351 350 348 348 346 345 345 344 344 344 343 340 336 337 339 339 340 344 347 348 348 349 352 355 354 352 353 354 357 360 359 357 356 350 344 341 338 336 335 335 335 334 335 337 337 337 335 332 329 326 322 321 324 324 323 323 325 327 327 328 329 329 328 329 330 329
354 353 351 352 352 351 350 350 350 349 348 347 346 345 345 344 346 345 345 344 342 338 338 339 341 343 343 346 349 352 355 355 355 353 354 352 353 355 358 358 357 353 345 342 339 337 335 334 333 332 332 333 332 331 329 327 326 323 322 322 322 322 321 321 321 323 324 325 326 326 325 326 326 326
354 353 353 353 351 348 349 349 348 350 348 350 347 347 346 346 346 347 345 344 344 341 340 340 341 343 345 348 350 352 352 353 351 349 349 352 353 354 356 359 360 351 345 342 340 337 335 334 333 331 331 330 330 329 327 326 325 323 322 322 321 321 322 321 320 321 321 321 324 323 322 322 323 324
354 354 353 353 352 350 349 349 349 347 348 349 349 348 348 347 346 345 344 344 343 342 342 341 340 340 345 344 346 348 350 350 349 349 351 352 351 350 351 354 360 360 355 350 346 339 336 335 332 331 331 330 329 328 327 326 325 322 320 318 318 320 321 320 320 320 320 319 321 322 319 318 320 324
351 353 353 353 352 351 350 349 349 348 347 349 348 349 348 348 345 345 344 343 342 342 342 341 342 342 343 345 344 346 348 347 348 348 349 349 347 346 346 350 353 353 350 346 344 344 342 339 336 329 327 327 327 328 327 326 324 322 318 316 316 316 317 317 318 319 318 318 318 318 315 314 319 323
350 350 351 351 352 351 351 350 349 348 348 347 347 348 348 347 345 345 344 342 342 341 340 340 341 338 338 339 345 347 345 346 344 347 349 346 347 347 343 347 349 350 344 347 346 341 338 336 334 328 328 329 329 329 328 329 329 326 322 319 319 319 317 317 317 317 316 315 314 314 314 314 316 320
349 349 350 350 350 353 360 358 357 355 356 349 346 347 346 346 345 345 344 343 341 340 339 340 340 338 341 342 343 343 342 341 343 340 343 344 345 344 345 347 349 352 350 346 344 343 340 338 336 335 334 335 334 331 331 331 332 330 324 321 321 321 319 317 317 317 317 316 315 314 314 313 315 317
348 348 348 351 359 361 360 355 353 349 355 360 354 348 345 345 345 344 343 342 341 341 339 339 339 338 339 340 341 341 342 344 341 341 340 339 343 340 342 343 344 348 346 343 343 345 341 338 337 334 334 337 338 336 332 330 330 329 326 323 321 320 320 318 318 317 316 316 315 314 313 313 314 315
347 347 347 346 352 360 365 359 352 347 345 350 356 359 361 360 347 343 342 342 342 340 340 340 340 339 339 340 341 341 342 342 343 342 341 342 340 339 336 337 343 344 347 340 336 342 339 338 337 338 336 337 335 333 333 334 332 327 325 323 322 321 320 320 320 318 316 315 314 314 313 313 313 314
345 345 345 346 347 347 348 348 350 352 350 344 345 346 350 351 357 358 350 345 342 340 340 340 341 340 340 341 342 342 341 343 342 343 342 342 341 340 337 334 337 341 349 343 337 343 339 335 337 337 340 339 337 336 332 331 330 328 325 324 323 322 321 320 321 321 319 318 317 317 317 316 316 315
344 344 344 344 345 346 355 356 350 346 346 345 343 342 343 346 345 339 339 347 352 347 342 341 341 341 342 341 343 345 343 342 342 340 339 339 339 340 338 340 337 343 350 345 341 342 342 335 340 338 341 341 340 340 334 332 331 328 326 324 323 323 322 321 321 321 320 319 317 317 316 316 316 314
344 344 343 343 344 344 345 346 346 345 345 344 343 343 342 342 347 347 341 338 339 347 348 345 343 345 345 344 345 348 347 344 344 343 342 342 339 339 340 343 342 343 349 348 339 338 338 336 336 338 343 345 343 343 337 332 329 328 326 324 322 321 321 320 320 320 319 319 317 315 314 313 314 313
345 345 345 344 343 343 343 343 345 343 343 342 342 340 339 339 340 340 341 342 343 343 344 346 347 347 348 347 348 349 348 348 349 348 346 345 344 344 339 341 343 343 346 345 341 339 345 338 336 342 345 346 347 348 339 332 329 327 325 324 323 321 320 320 319 318 318 318 317 315 313 312 312 311
346 346 345 344 343 343 343 347 342 348 346 341 340 339 339 339 339 339 344 335 338 345 344 345 346 347 349 343 350 351 350 349 349 351 350 346 344 344 343 344 344 345 344 348 344 340 343 343 340 343 344 339 342 344 343 335 330 327 325 324 322 320 318 318 318 318 317 317 317 315 312 310 309 309
345 345 345 344 344 343 342 342 331 331 342 341 340 340 339 339 338 338 340 334 329 329 329 329 331 332 332 332 330 329 330 342 347 345 342 344 345 341 338 339 339 341 342 343 349 345 341 345 342 341 342 336 340 342 344 339 326 323 322 321 321 319 318 317 316 316 317 317 316 315 314 310 308 310
343 345 355 356 346 343 343 336 329 328 335 336 336 336 336 336 336 337 339 341 342 329 324 324 325 326 327 328 328 329 328 328 336 343 341 343 341 338 337 336 338 340 339 342 349 337 341 344 339 339 335 330 331 333 337 333 325 322 318 318 318 318 318 317 315 316 316 316 315 314 313 310 309 312
340 341 348 353 352 350 345 331 328 327 334 336 336 336 335 335 335 337 338 339 340 341 342 345 343 341 338 338 337 340 333 332 343 340 341 342 340 338 338 338 337 337 339 342 349 342 340 340 342 340 333 330 333 329 330 327 321 320 322 322 319 317 318 317 314 313 314 315 314 314 311 309 310 314
339 339 340 344 334 326 325 323 322 321 320 333 338 338 337 336 336 340 340 342 342 343 345 345 347 348 349 349 347 346 345 346 347 341 340 341 341 340 340 341 340 338 337 332 347 343 337 336 336 335 340 334 327 328 325 325 321 321 321 321 320 319 320 319 316 313 312 313 313 313 312 309 310 314
341 342 343 344 338 326 322 318 315 314 315 321 333 337 339 340 342 344 341 344 356 350 348 348 348 348 349 350 351 350 349 348 348 346 342 343 343 342 342 341 341 341 343 344 342 343 340 334 335 329 331 331 330 329 326 320 321 321 322 321 320 318 318 318 317 315 312 310 310 310 309 310 309 313
343 343 344 345 340 320 312 310 308 308 311 314 328 331 322 322 322 332 340 341 341 342 343 343 344 344 345 346 347 349 350 350 351 350 348 344 344 345 346 345 343 341 342 345 336 344 341 337 337 335 330 328 333 332 332 328 326 320 320 319 320 320 318 319 318 316 315 314 313 310 311 310 311 311
344 346 347 349 334 316 311 309 309 309 310 317 326 317 315 317 320 329 333 336 337 337 339 340 340 342 343 344 345 346 347 350 351 350 350 349 346 345 346 347 348 347 349 348 345 345 342 339 338 337 336 334 332 327 325 327 329 318 318 319 318 318 318 317 317 317 316 315 316 311 309 309 310 311
341 341 342 337 317 309 306 307 309 311 313 320 314 313 314 317 322 331 334 334 335 337 337 338 339 341 343 344 345 346 348 349 351 352 352 351 350 347 345 345 346 347 347 347 346 343 342 341 341 340 339 336 334 333 334 329 329 322 324 321 320 318 317 317 316 320 321 317 315 314 312 311 312 311
339 329 317 311 309 311 310 310 312 318 323 319 314 313 315 323 330 332 334 336 337 337 338 339 341 343 344 346 347 349 349 350 351 351 352 354 354 353 351 349 347 346 347 347 347 346 344 343 342 343 340 338 337 337 336 337 334 329 325 325 322 321 319 317 317 316 318 316 315 314 313 313 312 314
319 315 313 313 313 315 320 333 338 338 338 327 323 322 325 331 333 334 335 336 337 338 340 342 342 344 347 347 349 349 349 348 348 349 349 350 351 352 352 351 351 352 351 350 349 349 347 346 345 344 343 341 339 339 339 338 337 338 331 328 329 330 322 318 317 316 319 317 316 315 315 314 314 315
327 327 329 329 324 323 325 325 327 328 332 334 335 335 335 334 335 336 337 338 340 341 342 342 344 345 347 348 347 346 346 346 348 349 348 348 349 350 350 349 349 350 352 353 353 352 350 350 348 346 343 343 343 341 342 341 339 340 338 331 330 332 327 319 319 317 317 318 318 317 316 315 315 322
321 326 327 327 335 338 340 340 341 341 341 340 338 338 338 338 339 340 340 341 339 340 341 342 343 343 344 343 344 345 345 346 347 348 347 347 348 348 347 345 346 347 348 349 351 352 355 352 351 349 348 347 345 345 343 342 341 341 342 339 332 334 331 323 320 319 319 318 316 316 316 316 314 314
321 325 330 334 336 337 338 338 339 340 341 341 342 342 341 341 340 339 339 339 339 339 339 338 339 340 341 341 343 343 343 344 345 347 347 348 347 347 346 345 345 345 345 346 347 347 349 351 353 352 351 350 349 348 346 344 344 343 341 341 337 335 334 332 327 325 320 317 316 317 317 317 317 316
318 327 330 332 333 335 336 337 337 339 340 341 341 342 337 342 343 342 341 341 341 341 340 340 339 339 339 340 341 342 341 343 345 345 340 346 347 345 345 344 345 346 344 345 346 346 345 346 347 349 350 351 352 350 349 346 345 345 343 343 342 340 340 337 332 328 320 320 320 318 317 318 319 319
325 328 329 331 333 334 336 336 337 339 340 340 341 342 343 344 343 340 341 342 341 341 341 340 340 340 340 340 341 340 341 342 343 345 344 345 345 345 345 344 345 345 345 345 346 346 343 343 341 340 339 342 345 349 349 350 346 346 344 343 344 343 343 341 337 330 324 322 322 322 322 322 321 321
328 330 330 330 330 331 330 330 331 331 332 335 337 340 342 343 344 343 343 342 344 343 343 342 340 341 341 341 340 340 340 339 341 342 343 344 344 344 344 344 344 345 345 346 346 347 344 344 342 341 340 340 339 338 341 343 345 348 344 344 345 344 345 345 341 336 327 324 323 324 326 327 328 328
324 323 324 323 324 324 323 323 323 324 325 325 326 328 330 333 337 341 345 344 344 343 343 343 343 343 343 341 340 338 338 339 340 341 341 343 343 343 344 343 343 344 344 345 347 346 345 344 342 342 340 339 338 337 340 341 334 338 350 345 345 346 345 345 341 336 333 330 327 325 328 331 333 335
318 318 318 318 318 317 318 318 318 319 319 321 322 324 326 328 329 330 333 337 341 344 344 344 343 342 343 342 342 343 343 342 342 342 341 342 342 342 343 343 344 344 344 345 345 345 345 345 343 342 341 339 338 338 338 343 343 339 332 346 346 347 346 344 341 339 338 333 332 331 329 330 333 337
315 315 314 314 314 314 313 314 314 314 315 316 318 320 322 323 324 326 328 330 332 333 336 342 345 344 344 345 343 343 343 343 343 343 343 343 343 343 343 343 343 344 343 343 344 344 344 344 344 344 343 341 339 340 342 341 341 345 337 324 343 348 346 345 344 342 340 336 332 333 332 333 331 324
314 313 313 312 312 312 312 312 312 312 313 313 315 317 318 319 320 321 323 325 326 327 332 335 337 338 345 346 344 346 346 345 344 345 345 344 343 343 344 344 343 343 342 342 342 343 343 343 343 344 344 345 346 347 346 344 344 345 345 337 319 336 349 347 346 345 341 341 337 331 331 330 330 331
312 310 309 310 310 310 311 311 311 311 311 312 313 314 316 317 317 318 319 320 323 325 328 330 333 335 338 342 345 345 344 343 344 345 344 344 342 340 337 333 340 341 340 339 341 341 342 343 345 335 344 347 347 347 344 342 340 343 345 347 325 317 323 332 349 348 346 343 338 334 332 331 331 330
309 308 307 308 308 309 310 310 311 311 311 312 313 313 313 314 315 315 317 318 319 321 323 326 328 329 331 334 338 340 342 342 342 342 341 342 343 341 336 336 340 341 340 339 340 342 343 340 344 342 342 343 343 340 337 339 339 341 344 344 342 330 323 320 321 329 350 346 338 334 332 332 328 329
309 307 307 308 308 309 309 310 310 310 310 311 312 312 312 312 312 313 313 314 315 317 318 320 322 323 325 327 331 334 336 337 339 341 342 341 341 341 341 341 341 342 342 341 343 343 343 342 342 342 342 341 340 340 338 339 340 341 342 343 340 339 342 330 323 320 321 324 328 338 344 339 328 326
305 306 305 306 306 306 307 307 307 308 309 310 310 311 310 310 310 311 311 312 313 314 315 316 317 318 320 322 324 326 327 331 333 332 334 336 339 341 341 341 339 340 341 341 341 342 342 342 342 342 341 340 340 339 338 339 339 339 341 341 340 336 338 337 338 328 325 324 322 320 319 321 327 332
305 304 304 304 305 305 305 306 306 306 307 307 308 308 309 309 309 309 310 311 311 312 312 312 313 315 317 318 317 317 318 318 321 325 328 331 334 337 338 339 338 339 339 341 340 340 341 340 340 340 340 341 341 340 338 337 338 339 339 340 339 340 339 333 335 336 337 338 331 323 321 324 325 323
Wind_Speed
1 1 1 1 2 3 3 2 2 1 0 1 2 0 1 4 2 2 3 2 1 2 1 2 2 2 1 2 4 4 4 5 4 3 3 4 4 6 7 6 6 6 7 6 6 7 7 7 6 6 5 4 5 6 5 4 5 5 6 6 6 8 9 10 9 9 9 9 9 9 10 12 13 14
2 1 1 1 2 2 3 3 2 2 0 0 1 1 1 3 0 3 0 3 3 2 2 1 1 2 3 3 3 2 4 5 3 3 4 4 4 6 7 7 7 8 8 8 7 8 8 8 7 6 5 4 4 5 4 4 4 5 5 5 6 6 8 9 9 9 9 9 9 9 10 11 12 13
1 3 3 2 3 2 3 3 2 2 1 1 1 1 1 1 3 4 3 0 3 3 2 3 2 1 3 3 3 3 3 4 3 3 3 3 5 6 6 8 9 9 9 9 8 9 9 9 8 7 6 5 4 4 4 3 3 4 4 4 5 5 6 8 8 8 9 9 9 10 10 10 11 12
2 1 3 3 3 2 1 3 3 2 1 0 1 1 1 0 1 4 3 2 5 3 4 4 4 3 2 4 3 3 3 3 5 3 3 4 5 4 5 7 10 10 10 10 10 10 10 10 9 9 8 7 5 4 4 1 1 3 3 3 3 3 4 6 7 7 8 9 10 10 10 10 10 11
2 3 3 3 3 1 2 3 3 3 1 0 1 1 1 1 1 1 0 2 5 4 2 2 4 4 3 3 0 2 3 4 4 3 3 3 4 4 5 5 8 10 11 11 11 10 10 10 10 10 9 8 7 5 4 2 0 2 2 2 2 1 2 3 5 6 7 8 9 9 10 10 10 11
3 3 3 4 4 2 3 3 3 3 1 1 2 2 1 1 2 3 2 3 2 5 2 3 3 4 1 3 1 3 4 5 4 4 4 3 3 5 5 5 6 9 11 12 12 11 11 11 11 11 10 9 9 8 6 4 2 1 2 2 2 1 0 1 3 4 5 7 8 9 10 10 10 11
3 3 4 5 4 2 3 3 3 2 3 1 1 3 2 3 3 3 4 2 3 4 5 3 2 3 2 4 4 4 5 4 4 4 5 4 4 3 4 5 5 8 11 12 12 12 11 11 11 12 11 10 9 9 8 6 3 2 2 3 2 2 2 0 1 3 3 5 6 8 9 9 10 11
4 5 4 5 4 3 3 4 3 3 3 3 3 3 3 3 4 3 3 4 4 3 3 3 3 3 2 4 5 5 4 5 5 3 5 3 4 5 4 5 6 7 10 11 12 12 12 12 12 12 11 10 9 10 9 7 5 4 4 4 4 4 3 3 1 2 2 3 5 7 8 8 9 9
5 5 5 6 4 3 4 4 3 4 4 4 3 4 4 4 4 3 3 4 4 3 5 5 3 2 2 4 4 3 4 4 3 3 3 4 5 5 4 4 5 7 8 9 11 11 12 12 12 12 11 9 10 11 10 9 7 6 6 6 6 5 5 4 3 3 1 2 3 5 6 7 7 7
5 5 6 5 5 4 5 6 4 4 4 4 4 4 5 5 4 4 4 3 3 4 6 5 5 2 4 4 4 3 2 4 5 6 5 4 3 3 5 4 4 3 3 3 4 6 9 11 12 12 10 10 11 11 11 10 8 8 8 8 7 6 5 5 4 3 2 2 2 3 5 6 7 7
6 6 6 6 6 6 6 6 6 5 5 5 5 6 6 4 4 5 5 4 4 4 4 4 5 5 4 3 6 3 1 2 3 4 6 7 3 0 2 6 4 2 4 4 6 6 6 6 7 9 11 11 12 12 11 11 11 9 10 9 8 8 7 6 5 4 3 2 1 1 3 4 6 5
6 7 7 7 7 7 7 7 6 5 6 5 5 6 4 4 4 5 5 4 5 5 4 5 7 4 4 4 4 3 3 4 3 3 4 6 7 7 2 3 6 4 2 5 4 4 4 6 8 9 10 11 12 12 11 12 12 12 11 10 10 9 8 7 6 6 5 4 3 2 1 2 4 5
7 6 7 7 7 7 10 11 10 9 8 6 7 7 4 5 5 5 5 6 5 6 5 7 5 4 6 6 6 7 5 6 8 2 2 4 5 4 6 7 4 6 6 4 3 4 4 4 6 5 6 8 8 10 12 10 12 14 12 12 11 10 9 9 8 7 6 5 4 3 2 0 3 4
7 8 7 8 12 13 13 13 14 14 13 12 9 8 6 6 6 6 6 6 6 5 6 7 6 6 7 8 6 5 6 5 3 4 3 4 7 4 5 6 5 2 2 2 5 6 3 5 6 5 7 7 4 6 5 8 9 10 13 13 13 12 11 10 9 8 7 6 5 4 4 3 1 2
8 7 7 7 9 10 10 11 14 14 15 14 15 15 13 10 7 6 7 7 6 5 6 6 5 6 8 9 7 6 7 5 5 6 4 5 4 4 4 7 7 2 5 3 2 6 2 4 6 6 7 7 5 6 8 11 12 13 12 13 13 13 12 11 10 9 9 8 7 6 5 5 4 1
8 7 7 6 6 6 8 7 7 10 13 15 15 15 15 15 15 13 9 8 6 5 6 7 7 5 7 9 6 7 4 7 5 6 5 5 6 6 5 4 5 4 3 4 2 8 2 2 5 7 8 7 6 8 11 12 12 12 13 13 13 13 13 12 11 10 9 8 7 6 5 6 5 3
8 7 6 7 6 7 11 9 7 7 8 12 14 15 15 14 14 14 15 14 11 7 6 7 8 8 7 7 8 6 5 3 5 5 5 5 5 6 6 7 5 6 4 3 4 7 6 5 4 7 9 6 6 7 10 14 13 13 13 13 14 14 13 13 12 11 10 9 8 7 7 6 6 4
8 8 8 8 8 7 6 6 7 7 8 8 7 7 7 8 10 13 14 15 16 13 9 8 9 10 6 9 9 9 4 4 7 7 8 5 5 6 8 7 6 5 5 6 3 5 6 4 5 7 9 5 6 7 10 13 13 13 14 14 14 15 14 13 13 12 11 11 10 9 8 7 7 6
9 8 8 7 9 8 7 7 8 8 8 7 7 6 7 8 8 7 7 8 8 8 8 10 11 12 10 9 10 10 6 7 9 8 8 6 5 5 2 3 5 7 5 4 2 7 8 3 3 7 8 5 6 7 8 12 13 13 14 14 14 15 15 14 14 13 12 11 11 10 10 9 8 8
8 8 8 8 8 9 9 11 14 12 8 6 7 8 9 9 8 8 10 13 10 9 9 9 10 10 11 12 11 10 7 6 6 5 2 1 3 5 5 7 5 6 3 6 6 5 8 4 5 7 6 3 6 7 6 9 12 13 13 13 14 14 15 15 14 14 13 12 12 11 10 10 9 9
6 6 6 7 8 8 9 13 14 13 9 6 8 9 9 9 8 9 9 10 14 16 16 16 16 15 15 16 16 15 14 10 5 2 3 7 6 6 7 7 5 8 5 3 6 5 8 7 5 7 5 3 6 7 8 6 7 10 11 12 13 14 14 15 15 14 14 13 13 12 11 10 10 9
6 7 10 10 7 8 9 13 13 13 7 7 8 9 10 10 10 10 9 6 7 12 13 14 16 16 16 16 17 16 16 16 8 6 9 10 5 7 6 8 7 6 3 6 5 3 8 6 3 5 4 2 5 7 8 5 4 5 7 9 11 12 13 14 14 14 14 14 13 13 12 11 9 6
6 7 7 11 11 9 11 14 14 14 10 8 9 9 9 10 11 12 9 7 8 7 5 6 6 7 10 11 9 11 16 16 10 8 10 8 6 8 8 8 6 6 7 6 8 6 6 5 6 4 2 3 6 4 5 4 3 3 3 4 5 9 11 12 13 13 14 14 14 13 13 12 10 5
4 5 5 6 9 13 14 14 15 14 12 9 9 7 8 10 13 10 6 7 7 8 8 8 6 7 6 6 6 6 7 7 7 9 9 8 8 8 9 9 8 8 6 3 8 8 4 3 5 5 8 5 4 2 2 4 3 3 3 3 4 6 9 10 10 14 14 14 14 14 14 13 11 6
6 6 6 6 7 12 13 13 13 13 12 9 8 8 9 10 10 7 5 5 7 5 5 5 6 6 6 6 6 6 6 7 7 7 8 9 9 9 9 9 9 10 11 7 9 5 6 4 6 2 4 3 4 4 3 3 4 4 4 5 5 4 5 7 5 7 9 12 13 14 13 13 14 10
5 5 5 6 5 10 12 11 9 9 8 7 5 9 12 13 13 9 6 6 6 7 7 7 8 8 7 7 7 7 7 7 7 7 8 9 10 10 11 11 11 9 11 6 15 9 7 6 8 6 3 2 7 4 7 5 5 3 2 4 5 5 6 6 6 6 7 7 8 10 11 13 14 16
6 5 5 3 8 12 13 12 12 10 9 6 6 11 12 13 12 8 6 6 6 7 8 7 8 9 8 8 8 8 7 7 7 8 8 9 9 10 10 11 11 12 12 5 8 8 8 7 3 6 8 4 6 4 3 5 5 2 3 5 5 5 5 5 7 8 7 8 7 9 10 12 14 15
5 5 5 5 10 11 11 12 12 12 10 9 13 13 12 11 8 5 5 5 6 6 7 8 8 9 8 8 8 9 8 8 8 9 8 9 9 9 9 11 12 12 12 9 5 6 7 8 7 5 5 6 7 8 10 5 5 4 6 2 2 4 5 6 7 6 6 5 5 6 6 8 9 9
4 6 10 11 11 10 10 12 10 7 8 10 11 12 11 8 4 5 5 6 5 6 8 8 8 8 9 9 9 8 8 8 7 5 6 7 8 8 9 10 9 9 8 8 8 8 8 9 10 7 6 6 8 9 7 11 7 6 6 4 5 6 7 6 7 7 7 6 8 8 11 11 9 9
10 11 12 13 12 11 9 6 4 4 6 9 11 12 9 5 5 5 5 5 5 7 8 8 9 9 8 8 8 8 7 7 9 7 7 7 8 7 7 8 9 8 9 9 8 9 9 9 9 8 9 8 8 10 10 10 11 10 6 7 8 1 5 8 9 9 8 9 10 11 11 8 9 9
7 9 8 8 11 12 14 12 9 8 7 6 6 5 4 5 5 6 6 7 8 8 9 9 9 9 8 7 6 8 6 8 8 6 8 8 10 7 6 7 11 9 7 7 9 9 9 9 9 8 10 10 9 11 10 8 12 11 8 7 7 9 5 7 8 9 10 10 8 8 6 6 7 10
7 7 8 9 7 6 6 6 4 5 5 5 5 5 5 6 6 7 9 8 7 8 9 9 9 9 8 8 8 7 7 9 9 6 7 9 9 7 5 6 11 9 8 6 6 7 9 9 9 8 11 10 11 10 7 9 13 12 11 7 8 10 6 8 9 10 10 7 6 8 9 9 10 10
5 5 6 6 6 5 6 6 6 6 6 6 5 6 6 6 6 6 5 6 7 7 6 8 8 9 8 9 8 8 9 10 9 7 7 8 9 7 6 9 11 9 9 8 5 5 5 6 7 9 9 9 11 11 10 12 13 10 10 9 8 11 9 9 8 8 6 6 9 8 8 9 10 10
4 6 5 6 6 6 6 6 6 7 7 7 7 6 6 6 6 6 6 6 7 7 7 7 7 8 8 9 8 8 9 9 8 7 7 9 7 7 7 8 10 8 7 9 8 7 5 5 6 6 7 8 8 10 12 13 15 9 7 8 10 12 10 7 8 6 9 9 10 9 8 9 10 9
5 6 6 6 6 6 6 6 7 7 7 7 8 7 7 6 6 6 7 7 7 7 7 7 7 8 8 9 9 9 9 9 9 8 6 7 7 8 8 8 10 9 8 9 9 5 5 6 5 5 4 5 8 11 14 16 12 12 7 9 10 11 11 7 7 8 10 9 5 8 10 9 8 9
7 7 8 8 9 9 9 10 10 10 11 11 11 11 10 8 6 7 7 7 7 7 7 7 8 8 8 8 9 8 9 9 9 9 8 7 7 7 7 8 9 9 8 9 10 6 4 6 5 6 8 8 9 13 13 17 20 11 12 12 10 10 11 10 10 8 8 8 8 9 10 12 12 10
8 9 9 8 9 8 8 8 8 9 9 10 10 10 10 11 12 11 10 9 8 8 8 8 9 8 8 8 8 8 9 8 10 9 9 8 7 8 8 8 9 9 9 10 8 8 5 6 5 6 8 9 11 13 16 0 16 21 12 12 12 10 11 9 7 8 9 11 11 11 13 12 13 10
6 6 7 7 8 9 8 8 9 9 10 10 10 10 10 10 10 11 12 12 11 10 9 9 9 9 9 9 9 9 9 8 9 9 9 8 8 8 8 9 9 8 9 9 6 7 5 6 6 6 7 10 11 12 13 12 6 8 16 14 11 10 8 8 8 10 10 9 11 11 8 10 12 11
4 5 4 5 6 6 7 8 9 9 10 10 10 10 10 11 10 11 11 10 10 11 12 11 10 10 10 10 9 9 10 9 9 9 9 9 9 9 9 8 9 9 8 10 8 7 6 7 7 7 9 10 12 12 11 11 13 9 8 20 14 11 8 7 10 9 9 9 10 8 8 9 7 8
3 3 3 3 4 4 5 6 8 8 9 10 10 10 10 11 11 11 11 10 11 11 10 10 12 11 10 10 10 9 10 10 10 9 9 9 8 8 8 8 8 10 9 11 11 9 7 8 8 9 9 11 12 12 10 9 9 8 9 10 17 16 12 7 10 10 9 10 6 6 10 6 9 6
4 4 3 3 3 4 5 5 6 8 9 10 10 11 10 10 11 10 10 11 11 11 10 10 10 11 11 11 11 10 9 9 9 8 8 8 9 8 10 9 9 10 10 11 13 12 10 7 9 12 11 9 9 8 8 11 13 13 12 10 10 18 20 15 11 9 10 6 7 10 10 9 10 8
3 3 4 4 4 5 5 6 6 6 7 8 8 9 10 10 10 13 12 12 11 11 10 10 10 10 10 11 11 10 9 8 8 7 6 7 8 10 11 9 10 10 10 11 13 14 8 3 6 8 8 8 7 8 11 12 13 14 13 7 4 11 16 19 20 17 13 7 6 6 6 5 3 6
2 3 4 4 4 5 5 6 6 6 7 7 8 8 9 10 9 10 9 10 10 10 10 10 10 10 10 10 11 10 10 10 10 10 9 9 8 9 9 9 10 11 11 11 12 11 8 5 5 6 6 7 8 8 11 13 12 11 12 11 7 3 7 12 16 19 20 19 15 12 10 8 5 5
2 3 4 5 5 6 6 6 6 6 7 7 8 8 8 9 9 9 9 9 10 10 10 10 10 10 11 11 10 11 11 10 11 11 11 10 9 9 10 11 11 11 10 10 11 11 8 6 7 7 8 9 8 8 12 12 12 12 12 12 8 4 7 5 5 9 11 15 20 21 20 15 15 14
3 3 4 5 5 6 6 6 6 7 7 7 7 8 8 8 9 9 9 8 9 10 10 10 10 10 10 10 10 11 11 12 12 10 9 9 9 9 9 10 11 11 11 11 11 12 9 7 7 6 8 9 8 9 11 12 13 12 11 11 13 11 7 4 6 8 8 9 13 18 20 22 21 19
Wind_Direction
256 264 269 260 272 291 290 317 316 345 161 165 183 194 136 155 84 347 347 288 271 306 356 54 313 342 323 284 278 272 264 265 261 244 239 240 247 255 255 252 239 232 230 229 238 246 248 251 256 264 280 298 307 320 340 15 30 43 37 31 26 22 22 23 12 6 358 0 2 3 1 3 360 360
244 254 306 23 323 301 331 300 290 330 103 149 194 279 144 134 161 173 193 277 217 263 306 217 306 313 317 300 300 248 288 284 266 255 254 257 256 264 264 255 245 235 231 228 230 236 240 245 250 259 271 276 283 302 320 360 25 44 40 32 33 28 28 23 12 3 356 356 358 359 1 4 2 357
246 281 308 326 320 332 333 316 320 351 17 123 154 100 137 188 136 154 136 309 284 186 264 285 243 264 291 307 311 337 333 327 306 261 250 255 274 281 271 258 250 241 233 228 227 232 236 240 245 250 258 260 257 270 296 336 15 53 47 37 36 35 37 26 16 4 354 352 354 355 356 1 4 357
243 260 300 298 289 303 311 289 304 319 341 93 81 131 119 163 183 137 142 178 262 242 224 269 288 252 267 310 345 326 332 331 321 282 259 245 253 256 257 254 244 242 236 233 230 230 233 235 240 244 250 258 252 261 269 269 12 73 62 51 40 30 38 34 19 8 357 351 353 354 352 358 2 360
240 239 247 271 274 252 260 249 256 282 272 48 100 140 137 143 163 111 141 231 280 299 252 246 274 303 336 319 199 326 309 312 306 294 267 262 258 259 255 255 246 238 237 236 234 231 230 232 236 240 243 252 256 255 266 259 31 93 103 84 71 30 32 40 23 14 359 353 354 355 353 356 360 1
243 229 236 261 270 258 248 263 250 227 242 274 312 293 191 225 227 186 159 213 219 280 308 304 292 289 228 255 260 235 279 289 294 300 299 281 248 256 256 257 260 240 236 236 237 235 233 233 236 240 241 244 257 263 264 264 258 171 136 137 177 154 221 12 12 14 3 350 353 359 357 354 359 0
240 243 237 250 253 252 248 257 253 243 250 236 224 262 245 251 254 197 185 172 240 267 278 241 273 262 268 212 263 249 240 259 272 287 290 287 289 261 255 259 263 249 238 237 237 237 237 235 238 241 241 241 248 258 263 261 241 229 207 193 200 186 206 310 311 347 9 347 349 359 360 355 355 355
236 238 246 249 242 240 237 256 259 254 247 246 246 249 267 235 252 236 181 200 202 227 260 283 235 263 247 274 260 264 267 267 279 249 280 294 283 285 275 254 262 260 245 240 237 237 238 239 240 241 243 241 244 253 259 258 244 225 219 213 211 207 205 219 252 300 338 344 340 352 359 357 351 351
225 232 233 246 241 224 237 255 249 250 246 245 228 238 250 242 246 252 220 217 197 213 247 272 267 251 262 249 266 257 274 299 296 298 289 294 300 298 275 263 258 268 259 244 243 240 242 245 244 244 245 242 245 250 253 254 246 230 225 219 220 214 201 206 211 248 284 307 328 359 11 357 347 343
222 226 232 239 238 241 238 251 251 246 246 247 239 241 245 240 241 248 255 223 211 213 240 240 292 294 262 299 275 259 215 266 302 314 303 302 293 292 315 290 266 251 238 247 247 249 250 250 251 253 253 247 247 250 252 253 248 236 231 224 220 222 214 203 211 223 230 251 304 350 14 356 341 346
224 226 230 230 226 230 233 241 246 246 251 246 251 246 248 245 230 247 252 246 237 233 256 271 244 270 279 244 279 290 200 237 227 268 313 312 299 322 259 299 299 260 261 241 235 241 239 244 246 249 251 251 252 253 253 253 251 243 234 229 221 224 220 208 203 214 230 225 234 41 37 355 343 352
228 228 229 229 226 223 226 226 235 226 241 243 255 253 243 247 236 247 252 251 244 249 248 247 269 254 272 296 266 301 348 322 306 203 226 265 291 305 292 241 288 299 275 280 266 244 246 256 255 260 260 252 248 251 256 253 251 245 236 230 224 222 221 214 206 206 219 222 206 198 120 358 345 360
230 233 232 233 232 228 230 225 225 224 219 224 239 255 233 243 237 250 254 248 250 251 243 270 259 269 284 271 279 295 287 261 259 256 165 252 262 277 308 297 266 242 260 274 282 267 211 240 251 255 272 256 244 249 244 254 246 243 236 231 227 221 217 215 210 204 210 224 218 187 158 273 336 6
229 230 229 233 232 231 233 233 233 234 234 231 225 238 234 235 237 241 251 257 248 249 260 257 267 278 270 271 262 258 258 263 292 297 231 252 278 309 286 279 268 260 197 265 287 268 210 208 261 247 254 265 230 248 230 238 236 238 231 230 228 223 217 213 210 205 204 215 224 205 172 185 271 359
237 234 231 234 241 239 237 237 234 235 237 239 240 243 242 230 218 235 243 250 243 239 241 254 256 246 264 271 265 256 268 269 252 255 254 245 270 274 290 294 305 253 170 220 246 287 247 183 237 251 245 260 246 238 243 243 238 237 231 226 226 225 218 211 210 207 204 207 216 217 184 178 207 231
242 242 239 236 236 235 235 237 243 241 240 240 243 245 247 249 243 233 226 240 252 228 238 249 246 243 248 262 266 266 251 261 261 252 246 246 246 262 260 247 252 254 170 181 228 270 258 185 238 266 256 247 239 239 243 246 240 235 230 225 223 222 217 212 208 206 204 204 209 213 199 189 202 213
241 242 242 247 238 242 241 239 240 242 252 251 247 249 253 257 252 247 243 237 234 238 229 234 250 234 241 251 256 235 230 208 247 255 242 238 232 230 246 251 259 269 189 175 233 259 257 170 219 243 259 244 245 253 245 244 241 236 228 223 221 220 215 210 207 206 205 201 203 207 208 198 196 202
237 237 237 242 249 243 239 237 237 238 243 250 256 257 253 251 256 252 242 239 240 238 236 233 240 249 213 237 247 251 209 212 246 252 258 253 250 246 240 244 243 254 150 202 224 273 264 194 215 248 265 241 245 246 249 243 239 235 229 222 218 218 214 208 205 203 203 201 199 203 205 203 198 199
235 238 236 238 247 255 246 238 230 234 240 242 249 254 254 249 249 247 247 238 230 227 222 230 237 249 249 242 248 256 236 221 240 240 249 242 238 250 285 314 257 270 223 202 174 253 271 144 196 246 261 263 250 253 256 242 238 234 228 221 216 215 212 206 202 200 200 201 200 200 201 205 203 199
234 234 233 235 244 250 254 253 243 237 238 236 244 252 256 260 257 253 247 245 240 230 224 221 228 236 241 243 246 249 247 235 240 252 236 244 252 267 279 270 282 273 246 184 198 249 266 231 191 260 257 244 262 261 252 251 233 231 226 220 215 213 210 205 200 199 199 199 201 199 200 203 204 202
245 242 235 234 243 252 255 259 257 253 244 251 250 252 258 260 264 264 263 246 239 238 236 236 238 242 247 252 255 259 258 247 246 191 228 253 242 255 270 271 274 267 269 227 205 239 267 256 223 266 267 227 254 267 263 246 227 225 222 217 215 212 209 204 199 198 197 198 199 200 199 201 203 197
258 252 249 244 242 250 258 263 266 264 248 243 248 253 259 265 266 266 263 266 256 242 240 243 245 248 254 257 260 262 261 256 234 204 239 248 240 249 234 259 253 275 286 251 164 202 243 269 226 243 286 320 241 246 255 252 237 215 224 222 217 215 210 203 201 198 199 198 198 199 197 198 193 186
261 263 262 257 253 252 256 256 257 258 248 245 248 250 254 262 264 262 267 264 268 272 267 259 247 256 249 249 248 252 251 253 238 213 232 247 228 246 248 248 271 287 265 238 167 211 262 242 250 203 306 286 274 247 255 265 241 217 204 206 222 222 209 205 200 201 202 200 200 199 196 193 178 189
278 266 273 274 261 258 264 269 269 267 259 249 259 255 251 255 262 266 269 253 248 260 259 262 256 255 256 252 243 246 253 249 227 220 220 224 221 232 245 244 229 237 248 265 175 192 259 190 254 194 204 237 279 283 326 295 240 218 195 192 225 211 202 201 207 207 206 205 204 202 198 190 179 184
282 291 286 287 281 268 266 272 279 279 277 267 265 262 253 246 266 310 293 284 281 282 280 275 273 268 262 256 248 245 243 242 235 220 213 213 213 218 232 239 237 242 243 232 168 189 240 202 245 195 258 216 245 277 281 294 273 219 209 200 216 196 180 205 199 205 212 212 211 209 204 193 190 191
276 269 269 267 309 359 8 355 341 317 298 272 234 249 251 275 292 286 274 286 287 279 279 279 277 274 270 269 262 253 245 240 237 232 222 214 217 217 221 224 229 242 251 209 174 203 225 256 236 238 232 208 268 227 275 281 276 279 220 216 220 209 187 196 199 211 199 202 208 210 208 202 199 203
303 305 304 326 13 328 322 316 306 302 305 300 253 255 256 253 257 260 251 247 254 261 264 266 267 267 263 265 263 256 254 246 234 234 230 224 219 223 227 229 229 237 250 236 187 205 207 243 219 212 246 230 264 292 253 264 281 351 313 238 230 213 199 191 208 214 205 203 214 192 202 210 209 208
302 304 309 302 305 304 298 302 304 300 291 275 278 276 269 264 258 245 248 232 234 243 253 255 258 258 254 250 255 251 244 247 236 234 236 235 228 225 229 231 233 239 247 249 218 205 208 233 247 226 226 240 243 256 269 248 248 226 242 295 240 229 212 206 221 223 214 205 191 188 191 210 213 203
287 291 290 287 285 286 288 282 286 291 289 286 278 275 275 277 248 239 237 246 237 241 246 248 252 257 254 247 250 249 243 245 247 244 248 243 242 235 236 238 236 237 237 239 234 221 214 222 237 238 225 210 231 246 239 261 251 245 212 237 275 229 210 207 217 217 216 198 205 198 207 208 199 196
282 281 281 280 278 274 265 266 277 295 285 291 294 290 281 268 253 243 245 251 243 249 254 253 253 257 261 256 254 256 256 252 249 241 249 253 253 241 245 259 254 236 229 228 224 224 222 225 231 234 243 237 223 244 244 252 260 253 207 206 229 298 200 198 209 215 207 210 211 211 220 206 205 177
325 308 303 294 287 278 275 269 259 255 267 270 266 261 250 247 247 249 241 249 257 262 268 270 267 267 268 277 280 270 265 261 259 236 246 250 255 248 245 249 265 262 237 218 219 219 221 225 224 216 234 246 242 236 246 241 254 257 238 211 189 225 209 192 208 210 208 215 215 223 221 207 211 205
306 307 302 293 285 279 272 268 258 248 240 242 249 248 242 242 242 244 246 251 257 264 269 277 286 288 290 286 278 279 268 261 262 246 239 247 257 250 241 253 261 264 264 240 229 220 218 221 221 219 224 234 245 252 236 239 246 247 253 227 215 242 208 200 206 215 207 195 206 224 219 209 214 215
311 328 327 329 324 321 308 304 301 298 289 280 260 257 251 241 240 240 228 240 246 249 254 260 265 271 276 274 271 268 269 264 263 252 250 251 252 257 222 245 260 269 274 269 245 238 231 238 226 228 229 234 236 244 249 258 252 240 244 243 230 239 233 225 215 209 158 172 218 225 230 221 223 219
306 334 330 332 325 321 322 317 311 307 303 298 291 278 263 259 258 250 245 240 250 249 247 252 258 264 269 271 269 266 265 272 267 257 241 256 243 246 244 250 258 256 256 265 263 252 238 237 240 247 250 250 245 235 233 243 257 252 235 246 241 249 246 226 228 196 180 195 201 215 228 239 229 220
331 336 337 328 327 325 322 323 324 319 316 308 300 294 289 275 264 257 257 261 258 256 256 254 250 256 259 264 267 266 265 267 271 271 250 244 246 241 245 247 259 258 254 265 264 249 223 245 230 254 261 261 266 257 223 227 250 250 246 240 241 249 258 233 217 205 202 214 186 208 228 240 242 222
3 360 360 2 0 357 356 354 351 349 343 342 337 331 320 307 290 274 271 264 257 260 262 263 262 258 255 255 258 259 262 263 267 266 266 251 245 244 240 244 254 261 256 260 266 260 228 236 213 246 267 271 272 280 274 205 211 229 231 244 234 236 241 237 223 208 196 210 206 209 222 230 236 226
16 11 5 3 357 358 351 344 343 339 337 335 332 333 333 334 335 329 315 291 273 264 260 264 267 267 263 261 261 257 257 255 260 259 258 256 250 248 251 253 249 252 255 253 250 259 227 236 208 225 248 259 264 267 273 9 213 220 214 232 242 230 235 236 223 220 214 208 213 209 219 223 233 231
26 12 8 360 356 352 347 342 339 334 333 331 327 324 325 326 326 325 331 330 319 305 280 265 260 259 261 263 264 265 261 251 251 257 257 257 256 256 249 256 262 259 262 265 253 249 228 235 224 217 223 248 261 265 279 281 275 246 216 227 239 242 219 220 220 229 232 218 225 224 223 242 240 242
24 17 5 358 351 350 343 338 334 330 329 327 326 326 324 324 324 324 326 322 327 327 322 309 287 268 262 261 258 260 263 260 254 252 254 253 245 251 255 254 264 266 266 271 261 246 230 229 226 220 224 237 247 254 257 271 268 277 214 208 221 242 233 206 228 229 231 228 233 238 236 247 310 310
9 5 357 348 340 335 334 332 331 328 326 323 321 320 321 320 322 322 319 323 323 316 310 312 314 307 288 275 266 263 259 255 254 252 251 251 248 243 250 253 257 267 272 272 275 263 237 231 218 224 229 233 245 252 263 262 276 274 267 239 211 220 233 205 225 228 234 231 216 215 240 248 243 248
353 345 335 327 309 316 317 326 324 323 320 318 315 316 315 317 315 314 319 317 315 314 315 317 317 320 321 315 301 284 271 262 257 254 252 252 254 252 252 255 261 260 263 269 269 269 254 237 228 221 226 241 246 271 276 272 266 268 262 253 202 211 227 229 232 225 237 209 187 214 226 220 230 240
330 317 303 304 305 306 309 309 316 313 311 311 310 313 314 312 308 311 311 312 315 315 314 313 318 321 320 317 315 311 302 292 286 273 263 260 261 258 250 246 254 262 255 259 263 263 267 197 218 219 224 227 239 235 248 254 264 269 271 262 225 218 221 226 230 234 235 205 187 222 234 252 226 254
317 318 308 304 299 301 303 306 304 306 306 306 307 307 307 309 308 314 316 315 314 315 315 316 319 319 315 315 316 315 307 298 293 287 282 268 260 259 262 256 250 254 256 258 263 270 271 249 230 222 222 219 224 216 243 252 258 266 276 279 260 224 241 242 240 241 243 244 238 236 215 198 144 226
276 290 294 296 299 301 301 299 300 297 302 303 301 303 302 304 307 308 309 309 312 312 315 313 313 312 313 312 315 315 314 316 324 323 318 313 301 287 276 271 265 259 258 258 266 268 263 241 228 213 221 231 221 219 238 253 261 259 264 269 271 245 247 261 267 258 259 253 249 252 257 249 235 246
291 276 278 284 291 294 299 301 300 301 298 300 301 302 302 300 300 302 300 302 305 309 310 310 309 307 309 314 318 316 313 312 308 301 298 297 296 296 289 280 275 270 265 262 263 269 266 247 234 218 226 235 229 227 241 242 250 257 256 256 266 263 240 205 237 248 247 258 248 238 243 247 249 258